Probability
70 68 64 60 58 58 59 58 57 56 53 46 39 38 39 38 35 29 24 21 17 12 9 8 5 1 0 0 0 0 0 0 0 0 0 0 0 0 0 0 0 0 0
68 66 62 59 56 55 56 55 53 51 49 45 40 39 40 40 37 30 25 21 17 11 7 6 4 1 0 0 0 0 0 0 0 0 0 0 0 0 0 0 0 0 0
65 62 60 57 55 54 54 52 50 49 48 44 41 40 41 40 36 31 25 20 17 12 8 6 4 1 0 0 0 0 0 0 0 0 0 0 0 0 0 0 0 0 0
58 56 56 56 54 53 51 49 49 50 49 45 41 39 38 36 34 31 25 21 19 15 11 9 6 2 0 0 0 0 0 0 0 0 0 0 0 0 0 0 0 0 0
48 48 50 53 52 49 46 45 46 48 47 44 40 38 35 33 33 30 27 24 21 17 13 12 10 5 1 1 1 1 0 0 0 0 0 0 0 0 0 0 0 0 0
41 41 45 49 49 46 43 41 42 44 45 42 39 36 35 34 33 31 28 25 22 18 15 14 13 9 5 4 4 2 0 0 0 0 0 0 0 0 0 0 0 0 1
37 37 39 44 46 44 42 41 41 42 42 41 38 36 35 35 33 31 28 25 21 18 16 16 15 13 10 7 5 2 0 0 0 0 0 0 0 0 0 0 0 0 1
32 33 34 37 40 41 41 40 40 39 39 39 38 37 36 33 32 31 28 26 23 18 17 17 16 15 12 8 5 3 1 0 0 0 0 0 0 0 0 0 0 0 1
24 26 29 31 35 38 38 37 35 35 34 34 35 35 33 31 30 30 29 28 26 21 18 17 15 14 11 9 8 5 2 1 1 0 0 0 0 0 0 0 0 0 0
16 20 25 30 33 35 34 32 31 30 28 26 26 27 27 28 28 28 28 30 29 25 22 18 15 13 11 10 9 6 3 2 1 0 0 0 0 0 0 0 0 0 0
14 17 24 29 33 33 30 29 28 28 24 21 19 20 22 24 25 26 28 29 30 29 25 21 17 14 11 10 8 5 3 3 2 0 0 0 0 0 0 0 0 0 0
14 18 24 29 32 30 27 25 25 25 22 19 17 18 20 21 20 22 26 27 27 27 25 22 19 16 12 10 8 5 4 4 2 0 0 0 0 0 0 0 1 1 0
16 21 28 32 31 28 25 22 20 19 17 15 14 15 16 16 16 19 24 26 25 23 23 22 20 17 12 10 8 6 4 4 2 1 1 1 1 1 0 1 2 2 1
18 25 33 37 35 29 24 21 17 14 13 12 12 12 13 12 13 18 25 27 23 21 22 21 20 17 12 10 8 5 4 3 3 2 2 2 2 2 1 1 2 3 3
18 26 37 42 38 30 23 20 19 16 15 15 14 15 15 13 14 18 25 26 22 19 20 20 18 15 12 8 6 4 3 3 3 3 2 2 1 1 1 1 2 2 2
16 24 37 45 42 34 25 22 24 25 23 20 20 22 22 19 18 20 24 25 22 20 20 19 17 13 9 5 4 4 4 3 3 2 2 1 0 0 1 1 1 1 1
19 24 36 46 46 39 31 26 26 28 26 24 25 27 27 24 21 21 24 25 25 24 24 21 16 13 8 3 1 2 4 4 4 4 4 2 0 0 1 1 0 0 0
30 30 35 42 44 41 34 28 26 26 25 24 25 27 26 24 22 22 25 30 32 31 29 24 18 14 9 3 0 1 3 4 5 5 5 4 2 1 1 2 1 1 1
37 35 33 37 40 41 38 33 27 26 24 22 24 25 25 24 23 25 30 36 37 36 31 26 22 19 12 4 0 0 1 3 5 5 4 3 3 2 1 2 4 4 4
33 32 30 34 40 44 44 39 32 29 26 24 24 28 31 31 31 33 38 40 39 34 30 27 27 25 18 6 0 0 1 3 5 6 7 5 2 1 1 3 5 6 7
27 29 31 35 45 51 50 43 36 34 33 29 28 33 38 37 38 43 46 44 39 34 31 30 32 31 22 9 2 0 1 3 4 7 9 7 2 0 0 2 3 4 5
24 29 34 39 47 55 55 48 43 42 41 36 35 40 43 39 41 49 50 46 41 36 34 34 34 32 24 12 3 0 0 1 2 5 7 5 2 0 0 0 1 1 1
22 29 36 40 44 51 54 53 50 50 47 42 40 44 45 42 44 50 49 44 39 35 34 34 33 31 26 15 5 0 0 0 1 2 2 1 0 0 0 0 0 0 0
22 28 35 39 40 43 46 49 52 53 51 47 44 45 45 44 45 46 43 37 32 28 28 28 27 25 23 15 7 2 1 0 0 0 0 0 0 0 0 0 0 0 0
25 28 34 39 40 40 41 45 49 52 51 49 47 45 43 41 41 39 33 25 20 18 17 17 16 16 14 9 5 3 1 0 0 0 1 1 1 1 1 1 1 1 0
27 30 34 40 42 42 43 45 48 50 50 50 48 45 42 39 37 35 26 16 12 10 8 7 7 6 5 3 2 2 1 0 0 1 2 2 3 3 3 2 2 2 1
Wind_Speed
14 13 13 13 12 11 12 12 11 11 9 7 7 6 5 4 4 5 6 5 4 4 2 3 3 1 2 2 2 2 2 2 1 1 1 2 3 3 3 2 3 4 4
13 14 13 12 12 12 12 12 12 12 10 7 6 5 6 4 4 4 6 6 5 4 4 3 3 3 2 2 2 1 1 2 2 1 1 1 1 1 3 3 3 4 3
15 15 15 13 13 13 13 12 12 12 11 9 6 6 4 4 4 5 5 5 5 5 3 4 2 3 3 3 2 2 2 1 1 1 1 1 1 2 1 2 3 3 2
14 15 15 14 13 13 12 11 12 11 11 10 9 10 8 6 6 5 5 5 5 5 4 4 3 2 2 4 3 3 1 1 1 1 1 2 1 1 2 1 2 3 3
14 15 16 15 14 14 12 11 11 11 11 10 10 9 7 6 5 6 7 6 5 5 5 5 4 2 2 3 1 3 0 1 1 1 1 2 2 2 2 2 3 2 3
13 14 14 14 14 13 13 13 12 11 11 10 9 9 9 8 8 8 8 6 5 5 6 6 4 3 2 3 2 2 1 1 2 2 1 0 0 1 1 2 3 3 3
13 13 13 14 14 14 14 13 13 12 12 11 10 10 9 9 9 8 8 7 6 5 6 6 5 3 3 3 3 2 1 1 1 2 2 2 1 1 1 1 1 2 2
13 14 14 14 14 15 14 14 13 13 12 12 10 9 9 7 6 7 7 7 5 5 7 6 5 4 4 4 3 2 2 2 0 1 2 2 2 2 2 1 1 0 1
13 14 14 14 14 14 14 14 14 13 13 12 11 10 9 8 8 8 6 5 5 7 8 7 6 5 4 3 4 2 2 3 2 1 1 1 0 1 2 2 1 1 1
11 13 12 13 12 12 12 13 13 13 13 12 12 11 10 8 7 7 7 6 6 7 8 7 6 6 5 4 4 3 3 3 2 1 1 1 2 1 1 1 1 1 1
10 12 12 12 12 12 12 12 13 13 13 12 11 11 11 9 8 6 7 6 6 8 8 7 7 6 6 5 4 3 5 4 3 2 2 1 2 2 2 1 0 1 1
10 11 12 12 11 12 11 12 12 13 13 12 11 11 10 10 10 8 7 7 7 7 8 7 7 7 6 5 5 4 5 5 4 3 2 3 2 1 2 2 2 1 1
9 10 11 11 11 11 11 11 11 12 13 13 13 11 11 10 10 9 8 8 8 7 8 7 7 6 6 6 5 4 4 5 4 4 3 3 2 2 1 1 2 1 1
8 9 9 10 10 9 10 11 11 12 12 12 12 12 11 10 10 9 9 8 8 8 8 7 7 6 6 6 6 5 4 4 4 4 4 3 3 3 3 2 2 2 2
8 9 9 10 10 10 9 10 10 11 11 12 12 11 11 10 9 9 9 9 9 10 8 7 7 7 6 7 7 6 6 5 4 4 4 4 4 3 2 2 0 1 1
9 10 11 11 11 10 10 10 10 10 10 11 11 11 11 10 10 9 9 9 9 8 8 8 8 8 8 9 11 7 5 5 6 5 5 5 6 6 6 5 3 2 3
5 8 9 11 10 10 9 9 10 10 10 10 10 11 11 11 10 11 10 9 9 8 8 8 7 7 6 10 11 10 4 4 4 5 5 6 7 9 7 8 8 7 8
1 3 6 9 10 11 10 9 10 10 10 11 11 11 11 11 10 9 9 8 7 7 7 7 7 7 8 12 12 10 6 4 4 5 5 5 5 5 5 5 6 6 7
1 1 3 6 8 10 11 11 11 12 12 12 11 12 11 10 10 10 9 8 7 7 7 7 7 7 8 13 13 11 6 5 6 6 6 6 6 6 6 5 5 5 5
2 1 2 4 7 8 10 11 12 12 12 12 11 10 10 10 10 9 8 7 7 7 7 7 7 8 7 13 14 13 6 6 6 6 7 8 7 7 8 6 5 6 5
1 1 1 2 5 7 9 10 11 10 10 10 10 10 9 9 8 8 7 7 7 7 7 7 7 7 8 12 15 15 7 6 6 6 5 5 9 10 11 9 6 6 4
2 1 1 1 3 5 8 8 8 8 8 8 9 9 9 9 9 8 7 7 7 7 7 6 6 6 6 9 13 16 14 8 6 4 3 3 8 11 11 8 6 6 5
3 2 2 3 3 4 5 7 6 6 7 8 8 8 8 6 6 7 7 6 6 6 6 6 6 5 5 7 13 16 15 12 6 3 1 1 3 6 7 9 8 6 5
3 3 2 2 3 4 4 4 5 6 6 7 7 7 7 6 5 4 5 5 5 6 5 5 5 4 4 4 5 7 8 9 7 6 4 3 4 4 5 5 6 6 6
5 3 2 2 3 4 4 4 5 5 6 6 6 6 6 6 5 4 2 3 2 3 3 3 3 3 3 2 4 5 6 5 5 5 4 4 4 4 4 4 4 4 5
6 5 4 3 3 4 4 4 4 5 6 6 5 5 5 5 5 5 4 6 5 5 6 6 5 4 4 4 6 7 6 6 5 4 4 5 4 4 4 4 4 3 3
Wind_Direction
161 160 163 162 161 159 159 163 164 159 157 158 162 160 157 159 149 142 145 151 154 155 176 125 151 153 113 124 143 137 176 211 201 175 154 171 163 156 149 150 141 143 144
159 160 163 163 165 166 167 168 167 163 166 164 161 158 156 160 148 139 142 153 158 164 174 138 165 127 122 136 134 116 251 218 166 181 165 147 136 208 161 151 157 146 149
165 166 168 168 170 170 171 172 168 167 168 161 158 153 143 148 150 147 155 165 168 168 146 144 143 142 165 152 177 184 218 260 168 162 89 115 163 159 130 169 130 130 137
165 168 170 170 172 171 170 168 169 168 167 166 166 165 169 170 163 161 159 170 171 161 155 152 141 166 149 143 199 181 210 232 242 170 146 148 136 139 145 158 146 161 162
167 168 171 171 171 170 169 169 170 170 169 173 172 172 172 167 157 158 159 168 167 166 163 156 150 164 148 141 132 112 353 307 300 288 187 181 175 218 167 166 168 178 174
162 163 166 166 169 170 170 170 171 171 172 177 175 179 175 168 164 164 164 170 167 175 170 158 150 168 151 139 133 125 168 352 3 349 340 99 198 241 225 159 173 178 171
155 158 162 167 170 172 173 172 172 174 177 179 178 183 180 173 171 169 174 174 172 173 169 157 157 165 143 142 138 146 150 143 23 356 338 0 0 31 18 48 168 149 156
160 163 167 170 173 174 173 173 174 176 179 181 182 182 180 178 176 179 179 180 176 165 153 148 161 155 157 162 145 164 169 135 132 286 4 340 354 4 8 18 31 273 197
165 166 169 172 175 175 176 176 177 180 184 184 181 180 180 185 184 179 182 180 167 154 153 158 162 160 163 150 148 182 155 134 187 211 202 292 323 350 359 11 20 1 321
166 167 167 169 173 174 176 177 179 183 185 185 183 181 182 187 181 173 182 177 168 149 154 160 161 161 160 159 170 174 147 151 176 196 131 342 338 11 4 353 354 353 340
173 167 165 167 170 172 176 178 180 181 183 186 186 179 179 180 178 177 177 170 163 154 158 163 164 163 166 169 178 184 157 174 191 204 163 164 335 355 340 338 340 322 358
170 167 165 168 171 174 178 180 179 180 182 182 182 180 176 176 179 180 177 170 164 161 162 165 166 172 173 170 179 202 171 176 188 202 184 185 199 190 334 343 339 356 47
162 162 162 168 172 174 177 179 177 179 180 179 180 178 178 178 179 176 172 170 168 170 170 169 173 181 171 172 185 203 189 185 187 186 196 199 195 195 230 273 303 310 284
162 164 162 166 168 172 176 178 178 177 176 177 179 177 178 177 178 174 172 172 173 175 174 174 178 181 178 178 186 195 204 198 191 187 197 203 205 195 215 232 237 275 294
169 172 173 167 168 171 176 177 177 174 173 175 177 175 173 174 176 175 175 175 178 182 176 176 181 184 187 190 187 191 198 198 201 198 200 211 204 178 195 236 205 278 276
182 181 177 169 172 176 178 175 174 173 169 173 175 171 173 176 178 177 178 178 181 183 177 183 187 192 203 191 183 186 202 187 198 205 208 212 194 191 200 216 218 223 256
186 178 174 172 170 173 174 175 172 170 171 174 174 171 174 177 179 181 179 180 181 184 183 186 190 196 189 169 170 181 198 202 204 210 213 232 227 198 201 213 225 235 239
126 163 173 170 172 172 172 173 174 173 175 177 177 173 176 177 176 180 181 181 179 184 186 190 195 196 188 175 175 180 200 219 224 222 220 228 253 224 207 212 212 220 228
54 148 183 173 170 173 173 173 178 180 182 184 181 177 177 177 179 183 181 178 180 186 192 197 200 202 187 179 180 177 199 214 228 234 230 223 227 219 205 215 231 237 244
29 314 203 174 170 175 170 172 180 183 187 185 183 179 177 179 183 182 179 180 183 190 196 202 202 203 188 183 185 185 204 216 222 226 230 231 227 216 200 207 224 241 247
4 313 227 177 172 168 169 176 180 183 184 180 176 175 175 179 180 177 177 179 187 195 203 205 200 199 194 183 189 193 207 219 223 228 219 213 209 208 205 207 218 229 245
5 333 137 129 151 157 164 170 175 173 169 169 171 170 171 182 182 174 178 185 191 195 200 206 207 200 196 188 194 198 209 223 234 235 229 210 199 202 205 209 226 233 242
14 10 102 115 129 145 152 165 162 156 159 160 160 160 164 171 165 169 177 183 188 200 203 202 209 210 200 192 189 197 208 220 227 244 251 233 188 196 208 221 226 231 235
9 11 67 106 121 135 145 151 144 146 153 156 156 155 156 164 159 157 171 183 194 203 203 202 205 203 197 193 182 188 202 215 226 237 235 224 212 220 233 222 223 225 232
9 13 48 95 116 125 137 144 144 147 152 153 151 154 159 157 146 142 132 171 163 192 196 196 190 192 191 188 171 173 182 193 202 208 220 229 220 222 230 233 229 223 227
23 32 48 76 96 112 117 124 133 143 144 145 145 155 157 152 155 149 125 68 77 81 89 79 88 87 100 120 137 145 152 164 173 188 220 224 230 236 240 243 242 240 240